GW4987 Weather Reports


time (UTC)temp
F
wind
direction
speed
knots
gust
knots
rain 1hr
in
rain 24hr
in
rain mn
in
humidity
%
barometer
mb
20260504041013 61 194 7.0 11.3 0.00 0.00 0.00 36 1015.9
20260504040555 61 200 6.1 6.1 0.00 0.00 0.00 36 1015.9
20260504040055 61 196 6.1 7.8 0.00 0.00 0.00 35 1015.9
20260504035555 61 212 7.0 9.6 0.00 0.00 0.00 35 1015.9
20260504035055 61 203 7.0 7.8 0.00 0.00 0.00 35 1015.9
20260504031555 63 188 6.1 13.9 0.00 0.00 0.00 29 1015.4
20260504031055 63 187 4.3 13.0 0.00 0.00 0.00 29 1015.4
20260504030556 63 205 5.2 10.4 0.00 0.00 0.00 28 1015.2
20260504030012 63 182 7.0 17.4 0.00 0.00 0.00 28 1015.0
20260504025556 64 220 11.3 20.9 0.00 0.00 0.00 27 1015.2
20260504025056 64 215 13.0 19.1 0.00 0.00 0.00 27 1015.3
20260504024512 64 219 13.0 22.6 0.00 0.00 0.00 26 1015.1
20260504024012 64 211 17.4 17.4 0.00 0.00 0.00 26 1015.0
20260504023556 64 184 6.1 18.2 0.00 0.00 0.00 26 1015.2
20260504023012 64 184 6.1 17.4 0.00 0.00 0.00 25 1015.2
20260504022555 64 187 7.8 18.2 0.00 0.00 0.00 25 1015.0
20260504022056 65 241 7.0 20.0 0.00 0.00 0.00 24 1015.0
20260504020055 66 194 4.3 13.0 0.00 0.00 0.00 23 1014.6
20260504015555 66 207 13.9 14.8 0.00 0.00 0.00 23 1014.7
20260504015013 66 188 9.6 14.8 0.00 0.00 0.00 22 1014.7
20260504014555 67 168 10.4 12.2 0.00 0.00 0.00 23 1014.6
20260504014056 67 172 10.4 13.0 0.00 0.00 0.00 22 1014.5
20260504013555 68 213 6.1 13.0 0.00 0.00 0.00 22 1014.6
20260504013055 68 208 8.7 13.0 0.00 0.00 0.00 22 1014.7
20260504012555 68 218 13.0 13.9 0.00 0.00 0.00 23 1014.7
20260504012013 68 165 6.1 15.6 0.00 0.00 0.00 23 1014.7
20260504011555 68 181 14.8 19.1 0.00 0.00 0.00 22 1014.9
20260504011056 68 181 7.0 21.7 0.00 0.00 0.00 23 1014.6
20260504010512 69 196 13.0 14.8 0.00 0.00 0.00 22 1014.5
20260504010012 69 198 8.7 16.5 0.00 0.00 0.00 22 1014.7
20260504005556 69 150 7.0 13.9 0.00 0.00 0.00 22 1015.0
20260504005012 69 159 10.4 20.9 0.00 0.00 0.00 23 1015.0
20260504004555 69 209 10.4 22.6 0.00 0.00 0.00 22 1015.0
20260504004056 70 153 7.8 14.8 0.00 0.00 0.00 22 1014.9
20260504003556 70 168 8.7 14.8 0.00 0.00 0.00 21 1015.1
20260504003056 70 205 10.4 18.2 0.00 0.00 0.00 22 1015.2
20260504002556 71 204 15.6 16.5 0.00 0.00 0.00 22 1015.1
20260504002056 70 202 8.7 20.9 0.00 0.00 0.00 23 1015.0
20260504001513 70 146 7.0 19.1 0.00 0.00 0.00 23 1015.1
20260504001012 70 138 7.8 19.1 0.00 0.00 0.00 23 1015.0
20260504000555 70 137 14.8 26.9 0.00 0.00 0.00 22 1015.2
20260504000056 70 188 13.9 17.4 0.00 0.00 0.00 22 1015.1
20260503235555 70 257 10.4 16.5 0.00 0.00 0.00 22 1015.0
20260503235055 70 157 5.2 20.0 0.00 0.00 0.00 22 1015.2
20260503234556 71 181 4.3 16.5 0.00 0.00 0.00 21 1015.1
20260503234013 71 201 10.4 18.2 0.00 0.00 0.00 20 1015.3
20260503233555 70 177 9.6 23.5 0.00 0.00 0.00 21 1015.2
20260503233056 70 204 22.6 24.3 0.00 0.00 0.00 23 1015.1
20260503232513 70 225 10.4 20.9 0.00 0.00 0.00 23 1015.1
20260503232012 71 169 10.4 19.1 0.00 0.00 0.00 22 1015.3
20260503231555 70 228 13.0 26.1 0.00 0.00 0.00 22 1015.1
20260503231012 70 180 18.2 22.6 0.00 0.00 0.00 24 1015.3
20260503230555 73 146 11.3 13.9 0.00 0.00 0.00 22 1015.2
20260503230055 72 157 8.7 12.2 0.00 0.00 0.00 23 1015.1
20260503225555 72 207 10.4 17.4 0.00 0.00 0.00 25 1015.2
20260503225013 70 212 7.0 21.7 0.00 0.00 0.00 25 1015.4
20260503224555 72 172 7.8 18.2 0.00 0.00 0.00 25 1015.3
20260503224055 71 103 6.1 19.1 0.00 0.00 0.00 25 1015.4
20260503223555 71 154 7.0 15.6 0.00 0.00 0.00 25 1015.7
20260503223012 73 209 8.7 21.7 0.00 0.00 0.00 24 1015.6
20260503222555 71 177 6.1 20.9 0.00 0.00 0.00 25 1015.7
20260503222056 71 137 9.6 18.2 0.00 0.00 0.00 25 1015.4
20260503221555 72 140 10.4 13.9 0.00 0.00 0.00 25 1015.8
20260503221055 72 132 6.1 24.3 0.00 0.00 0.00 25 1015.9
20260503220556 72 183 10.4 18.2 0.00 0.00 0.00 25 1016.0
20260503214512 72 141 7.0 17.4 0.00 0.00 0.00 24 1016.1
20260503214012 72 153 13.0 18.2 0.00 0.00 0.00 26 1016.1
20260503213536 70 141 4.3 20.0 0.00 0.00 0.00 27 1016.2
20260503213055 71 143 9.6 19.1 0.00 0.00 0.00 27 1016.3
20260503212555 72 147 5.2 13.9 0.00 0.00 0.00 26 1016.2
20260503212056 73 141 1.7 11.3 0.00 0.00 0.00 26 1016.5
20260503211556 71 141 6.1 15.6 0.00 0.00 0.00 27 1016.5
20260503211014 70 189 10.4 26.1 0.00 0.00 0.00 27 1017.0
20260503210555 70 160 6.1 14.8 0.00 0.00 0.00 27 1016.8
20260503210055 72 146 8.7 20.0 0.00 0.00 0.00 27 1016.7
20260503205556 72 186 8.7 20.9 0.00 0.00 0.00 26 1016.7
20260503205013 71 152 11.3 17.4 0.00 0.00 0.00 26 1017.0
20260503204555 71 184 18.2 21.7 0.00 0.00 0.00 25 1017.0
20260503204056 72 207 13.9 20.0 0.00 0.00 0.00 24 1017.2
20260503202012 71 211 8.7 20.0 0.00 0.00 0.00 25 1017.3
20260503201555 71 211 9.6 20.0 0.00 0.00 0.00 23 1017.0
20260503201055 73 176 15.6 19.1 0.00 0.00 0.00 21 1017.4
20260503200512 70 184 5.2 25.2 0.00 0.00 0.00 26 1017.1
20260503200013 71 176 10.4 20.9 0.00 0.00 0.00 24 1017.1
20260503195555 71 184 11.3 14.8 0.00 0.00 0.00 28 1017.4
20260503195013 72 172 12.2 19.1 0.00 0.00 0.00 26 1017.4
20260503194555 70 139 7.8 15.6 0.00 0.00 0.00 26 1017.7
20260503194055 72 196 8.7 15.6 0.00 0.00 0.00 23 1017.5
20260503193555 71 142 5.2 26.1 0.00 0.00 0.00 25 1017.6
20260503193013 72 152 7.0 14.8 0.00 0.00 0.00 27 1017.7
20260503192555 71 201 8.7 20.9 0.00 0.00 0.00 28 1017.6
20260503191013 71 143 4.3 24.3 0.00 0.00 0.00 26 1017.9
20260503190555 71 216 8.7 22.6 0.00 0.00 0.00 27 1017.9
20260503190055 71 129 14.8 18.2 0.00 0.00 0.00 28 1018.0
20260503185555 71 130 7.8 20.9 0.00 0.00 0.00 28 1017.8
20260503185055 71 129 11.3 22.6 0.00 0.00 0.00 28 1018.0
20260503184556 71 193 11.3 20.0 0.00 0.00 0.00 31 1017.9
20260503182513 71 153 7.0 11.3 0.00 0.00 0.00 31 1017.9
20260503182013 69 174 7.8 10.4 0.00 0.00 0.00 33 1018.0
20260503181555 69 116 7.8 10.4 0.00 0.00 0.00 34 1018.1
20260503175555 70 101 8.7 10.4 0.00 0.00 0.00 31 1018.0
20260503175013 71 123 10.4 15.6 0.00 0.00 0.00 32 1018.0
20260503174556 70 72 4.3 16.5 0.00 0.00 0.00 32 1018.0
20260503174056 70 92 6.1 15.6 0.00 0.00 0.00 34 1018.0
20260503173556 71 91 4.3 7.8 0.00 0.00 0.00 32 1018.1
20260503173012 70 139 3.5 14.8 0.00 0.00 0.00 33 1018.2
20260503172555 70 95 4.3 12.2 0.00 0.00 0.00 33 1018.1
20260503172056 69 127 8.7 19.1 0.00 0.00 0.00 35 1018.1
20260503171555 70 63 5.2 13.0 0.00 0.00 0.00 34 1018.0
20260503171056 69 135 5.2 15.6 0.00 0.00 0.00 34 1018.1
20260503170555 69 131 9.6 10.4 0.00 0.00 0.00 35 1018.4
20260503150512 66 127 4.3 5.2 0.00 0.00 0.00 39 1018.5
20260503131013 57 124 3.5 7.8 0.00 0.00 0.00 38 1018.1
20260503130555 56 112 4.3 7.8 0.00 0.00 0.00 38 1018.0
20260503081555 59 197 5.2 6.1 0.00 0.00 0.00 31 1018.9
20260503081014 59 205 4.3 5.2 0.00 0.00 0.00 32 1019.2
20260503080555 59 203 3.5 7.8 0.00 0.00 0.00 32 1018.7
20260503072555 58 209 5.2 5.2 0.00 0.00 0.00 34 1019.0
20260503072056 58 164 2.6 5.2 0.00 0.00 0.00 34 1019.3
20260503071555 58 188 5.2 6.1 0.00 0.00 0.00 34 1019.2
20260503071055 57 177 2.6 3.5 0.00 0.00 0.00 35 1019.2
20260503070556 57 148 0.0 3.5 0.00 0.00 0.00 35 1019.0
20260503053555 60 200 4.3 7.8 0.00 0.00 0.00 31 1019.0
20260503053055 61 191 2.6 9.6 0.00 0.00 0.00 31 1019.0
20260503052555 61 196 5.2 7.8 0.00 0.00 0.00 30 1019.3
20260503052014 62 153 2.6 7.0 0.00 0.00 0.00 30 1019.4
20260503051555 62 168 4.3 7.0 0.00 0.00 0.00 30 1019.3
20260503051056 61 218 8.7 9.6 0.00 0.00 0.00 30 1019.4
20260503050513 62 145 3.5 7.8 0.00 0.00 0.00 30 1019.4
20260503050055 62 180 4.3 7.0 0.00 0.00 0.00 30 1019.4
20260503045555 62 175 7.0 11.3 0.00 0.00 0.00 30 1019.2
20260503045014 62 273 5.2 14.8 0.00 0.00 0.00 30 1019.3
20260503044555 61 213 9.6 11.3 0.00 0.00 0.00 31 1019.0
20260503044056 62 240 7.0 13.0 0.00 0.00 0.00 30 1019.0